Probability
0 0 0 0 0 0 0 0 0 0 0 3 7 12 18 22 24 27 29 29 29 26 24 23 23 23 23 23 24 26 28 28 25 21 19 19 17 14 13 14 14 15 16 15
0 0 0 0 0 0 0 0 0 0 2 6 11 15 19 23 25 27 29 30 30 29 27 26 26 26 26 27 28 29 30 27 23 20 18 17 16 15 15 16 16 16 14 14
0 0 0 0 0 0 0 1 1 1 3 9 14 16 19 23 25 26 28 31 33 33 32 31 31 31 31 31 30 30 29 25 21 19 18 18 17 17 18 18 18 16 14 13
0 0 0 0 0 0 0 1 2 3 6 11 15 17 19 21 23 26 28 31 34 36 36 36 36 35 34 32 30 28 25 22 20 20 21 20 20 19 19 19 17 15 13 12
0 0 0 1 0 0 0 1 3 5 10 15 17 18 18 19 22 26 31 35 36 38 40 40 39 38 37 35 32 28 24 23 21 21 22 22 21 20 19 19 16 12 10 8
0 0 1 1 1 1 1 3 6 11 17 21 21 20 22 25 28 33 39 43 42 42 43 43 42 42 43 41 36 30 27 25 23 20 21 21 21 20 19 17 12 8 6 6
0 0 1 4 4 5 9 15 20 23 27 28 27 28 32 36 39 43 48 50 48 46 45 44 44 45 46 43 38 33 30 27 24 20 20 20 19 18 16 13 8 5 4 4
1 2 5 10 13 16 23 31 35 36 36 36 37 38 40 42 45 49 52 52 50 46 44 42 40 42 43 40 36 32 29 26 22 19 18 17 16 15 12 9 6 4 3 3
5 6 10 15 20 24 30 36 40 41 42 42 43 42 41 43 48 52 53 52 49 45 41 37 35 36 37 36 34 31 27 23 19 16 14 13 13 12 9 7 4 3 3 3
12 12 13 17 22 26 29 33 36 38 39 41 42 40 41 45 50 52 53 53 51 47 40 37 35 34 33 34 33 30 26 21 18 14 12 11 10 9 8 6 4 3 3 3
19 17 17 21 26 29 31 33 33 34 35 36 37 37 41 47 49 48 50 52 51 47 41 39 37 34 32 32 32 29 25 21 17 14 11 9 8 7 6 5 4 3 2 2
24 24 25 29 35 37 37 36 36 37 36 34 33 36 42 48 48 45 46 48 48 44 39 36 35 34 32 32 31 28 23 19 16 12 9 8 7 5 3 2 1 1 1 1
26 28 29 33 38 42 42 38 37 39 38 34 32 36 43 48 48 45 43 43 43 39 33 30 31 32 32 31 30 27 21 16 12 9 7 7 6 4 2 1 0 0 0 0
24 26 29 32 36 40 38 32 30 33 34 32 32 35 40 44 45 42 41 40 39 34 27 25 25 26 27 28 27 24 18 13 9 6 5 5 5 5 3 1 0 0 0 0
20 23 26 28 30 30 27 22 21 23 26 27 30 33 35 37 38 38 38 38 35 29 23 20 19 18 19 21 21 19 15 9 6 5 3 3 3 3 2 1 0 0 0 0
18 20 22 23 22 21 18 15 15 18 20 23 28 31 31 30 30 32 34 34 31 25 21 18 16 14 13 15 15 14 11 5 3 2 1 1 1 2 1 0 0 0 0 0
17 17 18 18 17 15 13 10 11 13 15 19 24 27 27 26 25 26 27 26 25 22 19 16 14 11 10 10 11 10 7 4 1 1 1 1 1 1 0 0 0 0 0 0
14 14 14 14 13 12 10 8 8 10 12 15 19 23 24 24 23 23 22 20 19 18 15 12 9 8 7 7 8 8 6 4 3 2 2 2 1 0 0 0 0 0 0 0
10 11 11 11 10 9 8 7 7 9 10 12 15 20 24 23 21 20 18 15 12 11 10 8 5 5 5 4 5 6 6 5 4 3 2 1 1 0 0 0 0 0 0 0
7 8 9 9 8 8 7 7 7 8 9 11 13 16 19 19 16 13 12 11 8 7 7 6 4 4 4 4 4 4 4 4 3 2 1 2 2 1 0 0 0 0 0 0
6 7 7 7 6 6 6 6 6 7 8 9 10 11 12 11 9 7 7 8 7 5 3 2 3 4 4 3 3 3 3 3 3 3 2 2 2 1 0 0 0 0 0 0
4 5 6 5 4 3 4 5 5 5 6 8 8 6 5 4 4 4 6 7 6 3 1 0 1 3 3 3 3 3 3 3 3 3 2 1 1 0 0 0 0 0 0 0
6 5 4 3 1 1 2 3 4 3 5 7 6 3 1 1 2 4 5 4 3 1 0 0 1 2 3 3 3 3 3 3 3 2 1 0 0 0 0 0 0 0 0 0
6 4 1 1 0 0 1 2 3 3 4 5 4 2 1 1 1 3 3 1 1 0 0 0 0 1 1 3 3 3 3 3 2 1 0 0 0 0 0 0 0 0 0 0
5 3 1 1 1 1 1 3 4 4 5 5 3 3 3 2 2 2 1 0 0 0 0 0 0 0 1 2 3 3 3 2 1 0 0 0 0 0 0 0 0 0 0 0
3 3 2 2 2 2 2 3 5 6 6 5 4 3 3 3 3 3 2 1 0 0 0 0 0 0 1 2 3 3 2 1 0 0 0 0 0 0 0 0 0 0 0 0
3 3 3 3 2 1 1 2 5 6 6 6 5 4 3 3 3 3 3 2 1 0 0 0 0 0 0 1 3 3 1 0 0 0 0 0 0 0 0 0 0 0 0 0
Wind_Speed
11 7 11 14 15 16 16 14 12 9 9 6 4 4 5 6 8 8 8 8 8 8 8 8 8 7 7 7 7 6 6 6 5 5 4 4 4 4 4 3 4 4 4 5
12 11 11 13 14 15 15 14 13 11 8 3 3 4 5 7 7 8 8 9 8 8 8 8 8 8 8 8 7 7 6 6 6 5 5 5 5 4 4 4 5 5 5 6
12 12 12 16 15 15 14 12 12 12 7 6 6 6 6 7 7 7 8 8 9 8 8 8 8 8 8 8 8 7 7 6 6 6 5 5 5 5 5 5 5 5 6 7
10 11 16 9 7 11 12 11 11 8 6 6 5 5 4 6 7 7 8 8 9 8 8 8 8 8 8 8 8 8 7 6 6 5 6 5 5 5 5 5 5 6 6 7
10 14 12 7 7 10 12 10 9 9 8 7 6 5 5 5 6 6 7 7 8 8 8 8 8 8 8 8 8 8 7 6 6 6 6 6 6 6 5 5 6 6 6 6
10 13 13 8 7 6 9 10 7 8 8 8 9 8 6 6 6 7 7 7 7 8 8 8 8 8 8 8 7 7 7 6 6 6 6 6 6 6 5 5 6 6 6 6
13 12 7 3 5 9 11 5 4 7 8 9 8 3 5 6 6 6 7 8 8 8 8 7 7 8 8 7 6 6 6 7 6 6 7 7 6 6 6 5 6 6 6 6
11 13 8 4 6 7 0 1 3 5 6 6 5 4 6 7 7 7 8 8 9 8 7 7 7 7 7 7 6 6 7 7 7 7 6 7 7 6 6 6 6 6 5 5
5 2 4 2 1 1 1 1 1 3 4 5 6 6 7 7 7 8 8 8 8 8 8 7 7 7 7 7 7 7 7 7 7 7 6 7 7 7 6 5 4 4 4 4
3 3 2 1 0 1 1 1 1 2 4 5 6 7 7 7 7 7 7 7 7 8 8 7 7 6 6 7 7 8 8 7 7 7 7 6 4 4 4 4 4 4 4 4
5 3 3 2 0 1 1 1 2 3 3 5 6 7 7 7 7 7 7 6 7 7 7 7 7 6 7 8 8 8 8 7 7 6 6 6 5 4 2 3 2 2 3 4
3 2 2 1 1 1 1 2 3 3 4 4 5 6 6 6 6 7 7 7 7 7 7 7 7 7 6 7 7 8 7 6 5 5 5 5 6 5 10 8 8 7 6 3
2 1 1 1 1 1 2 2 1 2 3 4 4 5 5 5 6 6 7 8 8 8 8 7 7 7 6 7 7 7 7 6 5 6 6 6 6 6 6 5 7 7 6 6
1 1 1 1 1 1 2 1 2 3 3 3 4 5 5 5 6 6 6 7 8 8 8 7 7 6 6 6 7 7 7 6 5 5 5 5 5 6 6 6 6 5 5 6
2 2 1 1 1 1 1 2 3 3 3 3 4 5 5 5 5 5 6 7 8 8 8 7 7 7 6 6 6 6 6 5 5 5 5 5 5 5 5 5 5 5 6 6
2 2 2 2 2 1 1 1 2 2 2 3 3 4 5 5 5 5 5 6 7 7 7 7 7 7 7 7 7 5 4 5 5 5 5 6 5 5 6 6 5 5 5 6
5 5 4 4 3 2 1 1 1 1 2 3 4 5 5 6 6 6 5 5 5 6 6 6 7 7 7 7 7 5 5 6 6 5 5 5 5 5 5 5 5 5 5 5
4 4 4 3 3 2 2 1 1 2 2 3 4 5 6 6 6 6 5 6 6 5 5 5 6 7 7 7 6 5 5 6 5 5 5 5 5 5 5 5 6 6 5 6
3 3 4 4 3 2 2 1 1 1 2 3 4 4 5 5 5 5 6 6 6 5 4 5 6 6 7 6 5 5 5 6 5 5 5 5 5 5 5 5 5 5 5 5
2 3 3 4 4 3 3 2 2 2 3 4 5 5 5 5 5 5 5 4 3 3 5 5 6 6 6 6 5 5 6 6 6 6 6 6 5 5 5 5 5 5 5 5
1 2 3 3 3 3 3 3 3 4 4 4 5 5 5 5 5 5 5 4 4 5 5 6 5 5 5 5 5 5 5 5 6 6 6 5 5 5 5 5 5 5 5 5
1 1 2 2 2 2 2 2 3 4 4 4 5 5 5 5 5 5 4 3 4 5 5 5 5 5 5 6 5 5 5 5 5 5 5 5 5 5 5 5 5 5 4 4
1 1 2 2 2 2 2 2 3 3 4 4 5 5 5 4 4 4 4 4 5 5 4 4 6 8 6 5 5 5 5 5 5 5 5 5 5 5 5 5 4 4 4 4
1 1 1 2 2 3 3 2 2 3 3 4 4 5 5 4 4 3 3 5 6 6 4 6 9 8 6 4 4 4 5 5 5 5 5 5 5 5 4 4 4 4 4 5
1 2 2 3 3 2 3 3 4 4 4 4 5 5 4 3 3 3 5 6 7 6 5 7 8 7 6 4 4 4 4 3 3 3 4 4 4 5 5 4 4 4 4 4
1 2 2 2 2 2 2 3 3 3 4 4 4 4 3 3 4 4 4 6 7 5 5 6 7 6 5 4 4 4 4 5 4 3 3 3 4 4 4 4 5 3 3 3
1 2 2 2 2 2 2 2 3 4 4 4 4 4 4 4 4 5 6 5 6 5 5 5 5 5 5 4 4 4 4 4 4 3 3 3 3 3 4 5 4 3 3 3
Wind_Direction
241 227 208 209 208 210 223 234 239 229 237 221 192 176 160 158 156 152 152 154 151 147 143 145 145 143 142 137 134 134 136 132 128 123 121 116 108 101 93 86 81 72 68 67
224 222 221 222 217 215 223 231 237 240 235 213 169 169 169 168 167 165 162 160 155 150 147 150 150 148 143 138 135 136 134 129 127 127 124 119 116 111 105 93 84 80 74 72
216 209 216 222 218 216 217 223 231 232 224 184 187 186 180 174 176 173 167 163 160 157 153 153 152 148 146 142 139 138 136 135 136 137 131 128 126 117 108 101 94 87 82 80
217 201 224 221 214 223 223 224 228 236 219 201 197 180 179 186 179 173 170 166 162 158 153 152 147 146 143 143 142 142 140 138 137 140 132 126 121 113 104 97 95 90 85 84
219 215 218 203 201 213 218 224 225 224 211 196 174 174 181 184 179 175 169 162 158 155 149 146 145 144 143 145 146 147 145 144 143 142 136 134 127 118 112 107 102 96 90 87
222 228 222 197 177 204 222 222 210 213 203 190 192 209 178 157 164 160 153 151 148 145 141 141 144 145 147 149 150 147 145 144 140 140 139 135 128 124 119 114 109 104 93 88
221 225 221 141 172 195 217 206 185 201 198 199 209 236 133 149 149 145 143 143 143 141 138 138 143 148 149 149 147 143 141 139 138 137 134 128 123 122 124 121 113 104 99 92
220 225 206 134 186 207 275 41 192 197 193 193 177 152 151 148 145 147 147 147 144 138 134 137 145 150 148 146 139 137 138 138 136 133 130 127 126 126 126 124 121 117 112 107
235 228 78 125 156 36 330 264 220 198 185 173 165 159 153 148 145 148 149 144 144 141 137 139 147 151 148 144 143 142 141 138 134 130 125 130 135 135 138 141 138 136 134 125
215 181 157 143 193 321 304 261 206 179 175 169 160 153 145 142 143 145 144 143 145 144 141 141 146 147 141 141 146 144 141 138 136 135 132 129 135 138 141 145 145 145 139 132
212 188 182 173 51 19 38 115 139 146 163 164 156 152 147 146 146 148 145 143 144 142 141 141 140 138 140 144 147 144 143 143 144 142 136 131 120 85 105 91 70 133 138 142
225 173 234 122 62 67 119 113 119 138 139 141 149 149 148 148 148 150 149 144 139 138 138 139 138 136 141 147 149 148 149 153 152 144 139 139 130 103 51 56 62 54 46 59
301 347 349 28 30 60 78 77 100 131 132 138 142 143 146 143 146 148 148 144 140 139 139 140 139 139 146 152 156 156 153 157 158 153 152 153 150 146 136 97 70 65 64 69
209 194 192 168 87 67 79 81 85 91 108 128 139 143 143 142 143 147 147 143 141 139 140 140 140 143 150 155 157 156 155 154 164 160 156 158 157 154 151 152 149 130 102 101
195 206 197 181 146 112 113 108 105 103 106 122 138 142 143 140 139 140 141 141 140 139 141 145 147 148 151 153 156 158 159 159 161 152 151 154 155 153 150 155 151 140 136 128
202 196 203 193 183 195 197 150 123 117 117 127 134 135 136 133 131 132 140 146 148 146 147 148 146 149 154 153 154 156 151 143 156 156 154 154 158 161 158 157 155 153 152 145
215 210 206 199 193 188 192 161 112 114 119 126 132 135 136 134 136 141 144 145 142 139 146 149 148 150 156 158 159 157 152 149 158 165 162 161 163 164 159 160 158 156 151 135
227 222 218 213 207 189 186 176 140 128 127 127 137 144 147 149 150 149 147 143 138 136 141 148 147 151 156 160 160 153 155 159 167 165 158 160 161 161 160 160 159 155 146 143
210 208 211 212 212 210 205 190 161 138 135 142 146 151 156 154 151 151 151 152 151 152 155 146 144 159 155 151 151 154 159 158 161 158 154 150 165 163 160 162 161 159 161 159
198 197 202 205 206 204 198 189 180 165 161 159 154 153 157 154 152 150 151 159 162 151 146 145 155 158 155 153 170 163 158 158 159 156 160 163 164 164 165 167 164 164 167 164
189 188 187 196 199 198 190 183 176 170 163 164 160 157 154 151 155 156 160 156 147 142 143 150 165 159 160 157 181 168 158 158 160 160 165 167 167 169 166 165 165 164 165 162
210 186 177 180 181 179 173 171 168 164 159 161 156 151 151 153 155 157 160 155 149 148 162 168 167 148 150 164 168 156 152 152 157 162 165 165 166 167 166 168 168 163 164 164
208 189 183 182 178 170 166 164 165 164 161 162 160 161 162 159 162 159 154 152 154 158 168 150 130 134 155 178 159 155 159 163 168 169 167 169 171 171 170 170 168 167 168 167
137 149 162 166 167 165 165 162 156 158 161 163 164 165 164 164 165 163 137 131 136 152 152 122 132 147 175 170 155 158 163 168 174 175 173 173 171 170 166 166 170 171 168 168
178 179 176 175 169 162 155 160 162 162 161 157 155 157 167 167 156 145 137 137 139 150 138 133 145 164 178 159 157 160 165 164 165 168 167 169 166 159 158 162 167 168 167 169
154 171 159 162 157 156 165 170 165 160 155 146 144 146 146 145 143 142 142 142 144 150 146 143 153 171 172 160 157 156 153 150 162 173 158 159 157 149 144 147 153 158 157 158
109 132 150 150 147 156 158 161 160 159 156 152 145 143 144 144 142 143 145 147 149 152 148 148 153 158 157 155 150 149 148 148 151 150 147 149 144 140 141 148 152 153 157 158